Orbital Elements at Epoch 2459200.5 (2020-Dec-17.0) TDB
Reference: JPL 20 (heliocentric ecliptic J2000)
Element | Value | Uncertainty (1-sigma) | Units |
e | .2337709575651753 | 3.1922e-08 | |
a | 2.660091587087369 | 1.2709e-08 | au |
q | 2.038239429562888 | 8.2058e-08 | au |
i | 5.696778062912289 | 4.7634e-06 | deg |
node | 56.55461509918756 | 6.0613e-05 | deg |
peri | 27.42999752237757 | 6.2793e-05 | deg |
M | 108.6025461790442 | 1.5276e-05 | deg |
tp | 2458722.441749302900 (2019-Aug-26.94174930) | 6.6667e-05 | TDB |
period | 1584.686329243398 4.34 | 1.1356e-05 3.109e-08 | d yr |
n | .2271742952259078 | 1.628e-09 | deg/d |
Q | 3.28194374461185 | 1.5679e-08 | au |
|
| | Orbit Determination Parameters
Additional Information
|